This demonstration page uses our WeatherBlox Daily Observations layout. Learn more.

Left ArrowRight Arrow

39.92423, -83.80882

Hourly Observations for January 20, 2017

Temp ( °F °C ) Dew Point ( °F °C ) Humidity (%) Winds ( mph kmh ) Pressure ( in mb ) Visibility ( mi km ) Precip ( " mm )
12:56 am 00:56 Cloudy with Light Rain 41 5 40 4.4 96 96 ESE 15 24 29.75 1008 5 8.0467 0.15 3.81
1:56 am 01:56 Cloudy with Rain 41 5 40 4.4 96 96 ESE 20 31 29.71 1006 6 9.65604 0.08 2.032
2:09 am 02:09 Cloudy with Light Rain 41 5 39 4 93 93 ESE 21 33 29.71 1006 5 8.0467 0.04 1.016
2:56 am 02:56 Cloudy with Light Rain 41 5 40 4.4 96 96 ESE 18 30 29.67 1005 7 11.26538 0.09 2.286
3:56 am 03:56 Cloudy with Light Rain 42 5.6 40 4.4 92 92 ESE 18 30 29.62 1003 8 12.87472 0.09 2.286
4:56 am 04:56 Cloudy with Light Rain 42 5.6 41 5 96 96 ESE 16 26 29.62 1003 6 9.65604 0.1 2.54
5:56 am 05:56 Cloudy with Light Rain 43 6.1 43 6.1 100 100 SSE 10 17 29.64 1004 6 9.65604 0.04 1.016
6:56 am 06:56 Cloudy with Light Rain 45 7.2 44 6.7 97 97 SSE 10 17 29.64 1004 8 12.87472 0.03 0.762
7:31 am 07:31 Cloudy with Light Rain 46 8 45 7 93 93 S 7 11 29.62 1003 8 12.87472 0.02 0.508
7:56 am 07:56 Cloudy with Light Rain 48 8.9 47 8.3 96 96 S 6 9 29.65 1004 9 14.48406 0.02 0.508
8:56 am 08:56 Cloudy 50 10 50 10 100 100 SW 13 20 29.67 1005 9 14.48406 0 0.0254
9:54 am 09:54 Cloudy 52 11 52 11 100 100 SW 14 22 29.68 1005 10 16.0934 0 0
9:56 am 09:56 Cloudy 52 11.1 51 10.6 97 97 SW 15 24 29.7 1006 10 16.0934 0 0
10:23 am 10:23 Cloudy 54 12 52 11 94 94 SW 15 24 29.68 1005 10 16.0934 0 0
10:56 am 10:56 Cloudy 54 12.2 52 11.1 93 93 SW 15 24 29.71 1006 10 16.0934 0 0
11:35 am 11:35 Cloudy 55 13 52 11 88 88 SW 17 28 29.71 1006 10 16.0934 0 0
11:56 am 11:56 Cloudy 56 13.3 51 10.6 84 84 SW 15 24 29.7 1006 10 16.0934 0 0
1:10 pm 13:10 Cloudy 57 14 50 10 77 77 WSW 18 30 29.68 1005 10 16.0934 0 0
1:56 pm 13:56 Cloudy 56 13.3 49 9.4 77 77 WSW 16 26 29.69 1006 10 16.0934 0 0
2:56 pm 14:56 Cloudy 57 13.9 50 10 78 78 WSW 14 22 29.7 1006 10 16.0934 0 0
4:27 pm 16:27 Mostly Cloudy 57 14 50 10 77 77 SW 10 17 29.71 1006 10 16.0934 0 0
4:56 pm 16:56 Mostly Cloudy 56 13.3 49 9.4 77 77 SW 12 19 29.72 1006 10 16.0934 0 0
5:56 pm 17:56 Cloudy 54 12.2 48 8.9 80 80 SW 5 7 29.74 1007 10 16.0934 0 0
7:56 pm 19:56 Cloudy 50 10 48 8.9 93 93 Calm 29.79 1009 10 16.0934 0 0
8:56 pm 20:56 Cloudy 50 10 47 8.3 89 89 ESE 6 9 29.78 1008 10 16.0934 0 0
9:56 pm 21:56 Clear with Mist and Fog 45 7.2 45 7.2 100 100 ESE 6 9 29.78 1008 6 9.65604 0 0
10:56 pm 22:56 Mostly Cloudy 49 9.4 47 8.3 93 93 SSE 6 9 29.79 1009 10 16.0934 0 0
11:56 pm 23:56 Cloudy 49 9.4 47 8.3 93 93 SSE 8 13 29.78 1009 10 16.0934 0 0

Powered by AerisWeather